This is the latest recevied weather packets stored in our database for station/object WE3WEE. If no packets are shown the sender has not sent any weather packets the latest 10 day(s).
| Time | Temp. | Humidity | Pressure | Rain* | Wind** | Luminosity | Snow |
|---|---|---|---|---|---|---|---|
| 1777755399 | 11.67° C | 49% | 1011.7 hPa | 0 mm | - | - | - |
| 1777754187 | 11.67° C | 46% | 1011.7 hPa | 0 mm | - | - | - |
| 1777753579 | 11.67° C | 42% | 1011.7 hPa | 0 mm | - | - | - |
| 1777753278 | 11.67° C | 44% | 1011.7 hPa | 0 mm | - | - | - |
| 1777752974 | 11.67° C | 43% | 1011.7 hPa | 0 mm | - | - | - |
| 1777752670 | 11.67° C | 46% | 1011.7 hPa | 0 mm | - | - | - |
| 1777752366 | 11.67° C | 48% | 1011.7 hPa | 0 mm | - | - | - |
| 1777752064 | 11.67° C | 46% | 1011.7 hPa | 0 mm | - | - | - |
| 1777751457 | 13.33° C | 44% | 1011.7 hPa | 0 mm | - | - | - |
| 1777751154 | 12.78° C | 44% | 1012.8 hPa | 0 mm | - | - | - |
| 1777750244 | 12.22° C | 45% | 1012.8 hPa | 0 mm | - | - | - |
| 1777749940 | 12.22° C | 42% | 1012.8 hPa | 0 mm | - | - | - |
| 1777749637 | 12.22° C | 45% | 1012.8 hPa | 0 mm | - | - | - |
| 1777749329 | 12.22° C | 44% | 1012.8 hPa | 0 mm | - | - | - |
| 1777749027 | 12.22° C | 45% | 1012.8 hPa | 0 mm | - | - | - |
| 1777748724 | 11.67° C | 44% | 1012.8 hPa | 0 mm | - | - | - |
| 1777748116 | 11.67° C | 49% | 1012.8 hPa | 0 mm | - | - | - |
| 1777746596 | 11.67° C | 43% | 1012.8 hPa | 0 mm | - | - | - |
| 1777746292 | 11.67° C | 46% | 1012.8 hPa | 0 mm | - | - | - |
| 1777745687 | 11.67° C | 53% | 1013.8 hPa | 0 mm | - | - | - |
| 1777745385 | 11.67° C | 50% | 1013.8 hPa | 0 mm | - | - | - |
| 1777745082 | 11.11° C | 46% | 1013.8 hPa | 0 mm | - | - | - |
| 1777744778 | 11.67° C | 47% | 1012.8 hPa | 0 mm | - | - | - |
| 1777744472 | 11.67° C | 52% | 1012.8 hPa | 0 mm | - | - | - |
| 1777743562 | 11.67° C | 44% | 1013.8 hPa | 0 mm | - | - | - |
* Rain latest hour (hover to see other rain measurements)
** Current wind speed in m/s (hover to see current wind gust speed)